Cloud_Cover
51 83 81 100 100 100 99 100 100 93 60 100 92 90 100 15 0 0 0 0 0 0 0 0 0 37 100 100 100 100 100 80 100 100 99 100 100 6 1 2 5 5 1 0 1
89 46 99 79 100 100 100 100 95 28 6 32 67 69 14 41 10 0 0 0 0 0 0 0 0 5 93 98 100 100 98 95 100 100 100 100 100 100 9 0 0 2 2 0 0
20 27 93 100 100 100 65 83 97 100 25 20 22 28 30 27 0 0 0 0 0 0 0 0 0 5 30 98 100 97 100 100 100 100 100 100 100 100 100 4 23 2 5 0 0
10 15 24 72 27 22 21 7 28 85 100 24 20 16 17 8 0 0 0 0 0 0 0 0 0 5 83 100 100 100 100 100 100 100 100 96 100 100 68 76 1 0 5 0 0
2 7 17 30 19 15 22 40 9 98 46 28 22 24 4 0 0 0 0 0 0 0 0 0 0 5 5 22 97 100 100 100 100 100 100 92 100 100 100 95 72 0 2 1 3
0 0 2 22 26 17 21 28 28 28 28 31 24 8 0 0 0 0 0 0 0 0 0 0 0 0 5 20 72 98 100 100 100 100 100 97 100 100 100 36 100 4 73 0 5
0 0 0 12 2 14 1 21 29 33 30 33 11 1 0 0 0 0 0 0 0 0 0 0 0 0 3 21 5 6 100 100 100 100 100 99 100 100 100 94 99 7 100 10 5
0 0 0 0 0 7 11 74 68 56 24 25 0 0 0 0 0 0 0 0 0 0 0 0 0 0 0 5 2 5 100 100 100 100 100 100 100 100 100 95 50 1 92 22 4
0 0 0 0 7 12 60 49 15 28 17 0 0 0 0 0 0 0 0 0 0 0 0 0 0 0 0 1 5 25 100 100 100 100 100 100 100 100 72 96 92 4 8 1 0
0 0 0 0 0 26 67 0 0 0 2 0 0 0 0 0 0 0 0 0 0 0 0 0 0 0 0 0 0 1 100 100 100 100 100 100 100 96 56 100 100 96 42 0 0
8 0 0 0 0 78 13 0 0 0 0 0 0 0 0 0 0 0 0 0 0 0 0 0 0 0 0 0 0 0 95 100 100 100 100 100 100 100 100 100 100 100 9 5 0
15 4 0 0 0 0 1 0 0 0 0 0 0 0 0 0 0 0 0 0 0 0 0 0 0 0 0 0 0 0 60 100 100 100 100 100 100 100 100 100 100 100 42 63 7
26 35 17 0 0 0 0 0 0 0 0 0 0 0 0 0 0 0 0 0 0 0 0 0 0 0 0 0 0 0 46 100 100 100 100 100 100 100 100 100 100 87 67 8 5
38 46 45 45 0 0 0 0 0 0 0 0 0 0 0 0 0 0 0 0 0 0 0 0 0 0 0 0 0 0 0 100 100 100 100 100 100 100 100 100 100 98 100 75 5
12 53 78 45 0 0 0 0 0 0 0 0 0 0 0 0 0 0 0 0 0 0 0 0 0 0 0 0 0 0 4 58 100 100 100 100 100 100 100 100 100 88 16 79 49
15 84 98 18 0 0 0 0 0 0 0 0 0 0 0 0 1 4 0 0 0 0 0 0 0 0 0 0 0 1 5 4 100 100 100 100 100 100 100 100 100 95 44 91 83
18 100 98 0 0 0 0 0 0 0 0 0 0 0 0 0 0 0 0 0 0 0 0 0 0 0 0 2 3 4 5 3 1 100 100 100 100 47 100 100 100 100 96 100 99
89 100 8 5 0 0 0 0 0 0 0 0 0 0 0 0 0 1 0 4 0 0 0 0 0 1 5 48 31 43 3 0 0 59 100 100 100 100 100 100 100 100 90 81 100
33 0 0 0 0 0 0 0 0 0 0 0 0 3 8 21 5 0 5 0 0 2 0 0 5 4 15 90 67 5 0 1 2 5 100 100 100 100 100 100 100 100 96 100 100
0 0 0 0 3 2 3 0 0 0 0 0 7 83 100 100 5 2 0 2 1 3 0 0 5 94 72 93 14 87 11 16 5 3 100 100 100 100 100 100 100 100 98 100 99
0 0 0 0 3 5 5 5 0 1 4 5 14 100 100 29 5 5 5 2 5 9 0 0 4 90 91 98 44 100 5 82 32 20 26 100 100 100 100 100 100 100 100 100 100
5 5 5 5 15 6 72 30 7 81 96 5 5 6 74 93 5 5 5 5 21 100 5 1 7 99 100 35 84 98 89 4 74 6 5 81 100 100 100 100 100 100 100 100 100
58 22 44 5 84 75 95 86 100 100 100 43 52 17 95 55 9 65 5 3 36 63 9 5 5 99 87 36 85 41 98 0 80 57 0 5 89 100 100 100 100 100 100 100 100
82 69 53 5 94 82 100 100 100 100 100 100 99 16 100 100 6 5 5 6 41 4 1 3 6 85 100 27 99 100 100 15 92 54 1 33 72 99 100 100 100 100 100 100 100
47 98 49 7 68 100 100 100 100 79 100 100 54 28 100 84 86 5 5 5 49 2 0 1 100 100 100 100 100 100 100 46 13 50 6 93 94 97 100 100 100 100 100 100 100
66 100 82 16 90 81 100 100 100 64 99 98 21 83 97 36 5 5 5 37 4 0 0 2 6 100 100 100 100 100 100 43 0 28 6 23 74 100 100 100 100 100 100 100 100
98 86 62 54 98 94 100 100 99 100 62 96 83 100 100 18 8 5 73 25 0 2 5 30 30 89 96 100 100 100 100 91 0 62 100 29 46 100 100 100 100 100 100 100 100